Location: Acheville
(50.3840°N, 2.8827°E)
Time: 00:18:52
(UTC+00:00)

FENGYUN 1C DEB - Pass Details

Date: 03 February 2023
Orbit: 634 x 940 km, 98.3° (Epoch: 28 March)

Event Time Altitude Azimuth Distance (km) Brightness Sun altitude
Rises 05:10:07 0° 30° (NNE) 2,948 ? -21.0°
Maximum altitude 05:15:43 14° 89° (E) 1,755 ? -20.1°
Drops below altitude 10° 05:18:08 10° 123° (ESE) 2,045 ? -19.7°
Sets 05:21:20 0° 147° (SSE) 2,983 ? -19.2°
